Time,TemperatureF,DewpointF,PressureIn,WindDirection,WindDirectionDegrees,WindSpeedMPH,WindSpeedGustMPH,Humidity,HourlyPrecipIn,Conditions,Clouds,dailyrainin,SoftwareType,DateUTC
2013-02-02 00:00:00,39.2,25.7,30.34,ENE,61,0.0,1.0,58,0.00,,---,0.00,VWS V14.01,2013-02-02 05:00:00,
2013-02-02 00:05:00,39.1,26.4,30.34,ENE,61,1.0,1.0,60,0.00,,---,0.00,VWS V14.01,2013-02-02 05:05:00,
2013-02-02 00:06:00,39.2,26.9,30.34,ENE,61,0.0,1.0,61,0.00,,---,0.00,VWS V14.01,2013-02-02 05:06:00,
2013-02-02 00:10:00,38.6,24.7,30.34,ENE,61,1.0,1.0,57,0.00,,---,0.00,VWS V14.01,2013-02-02 05:10:00,
2013-02-02 00:11:00,38.6,24.3,30.34,ENE,60,0.0,1.0,56,0.00,,---,0.00,VWS V14.01,2013-02-02 05:11:00,
2013-02-02 00:15:00,38.5,25.4,30.34,ENE,61,0.0,1.0,59,0.00,,---,0.00,VWS V14.01,2013-02-02 05:15:00,
2013-02-02 00:16:00,38.5,25.4,30.34,ENE,61,0.0,1.0,59,0.00,,---,0.00,VWS V14.01,2013-02-02 05:16:00,
2013-02-02 00:20:00,38.4,26.5,30.34,ENE,60,0.0,0.0,62,0.00,,---,0.00,VWS V14.01,2013-02-02 05:20:00,
2013-02-02 00:21:00,38.4,25.3,30.34,ENE,61,0.0,1.0,59,0.00,,---,0.00,VWS V14.01,2013-02-02 05:21:00,
2013-02-02 00:25:00,38.2,25.5,30.34,ENE,61,0.0,0.0,60,0.00,,---,0.00,VWS V14.01,2013-02-02 05:25:00,
2013-02-02 00:26:00,38.2,25.5,30.34,ENE,61,0.0,0.0,60,0.00,,---,0.00,VWS V14.01,2013-02-02 05:26:00,
2013-02-02 00:30:00,37.8,24.8,30.34,ENE,61,0.0,1.0,59,0.00,,---,0.00,VWS V14.01,2013-02-02 05:30:00,
2013-02-02 00:31:00,37.8,24.4,30.34,ENE,61,0.0,1.0,58,0.00,,---,0.00,VWS V14.01,2013-02-02 05:31:00,
2013-02-02 00:35:00,37.7,25.9,30.34,ENE,61,0.0,1.0,62,0.00,,---,0.00,VWS V14.01,2013-02-02 05:35:00,
2013-02-02 00:36:00,37.7,25.5,30.34,ENE,61,0.0,1.0,61,0.00,,---,0.00,VWS V14.01,2013-02-02 05:36:00,
2013-02-02 00:40:00,37.7,25.5,30.34,ENE,60,0.0,0.0,61,0.00,,---,0.00,VWS V14.01,2013-02-02 05:40:00,
2013-02-02 00:41:00,37.7,25.9,30.34,ENE,61,0.0,0.0,62,0.00,,---,0.00,VWS V14.01,2013-02-02 05:41:00,
2013-02-02 00:45:00,37.3,25.5,30.34,ENE,61,0.0,0.0,62,0.00,,---,0.00,VWS V14.01,2013-02-02 05:45:00,
2013-02-02 00:46:00,37.3,25.5,30.34,ENE,60,0.0,0.0,62,0.00,,---,0.00,VWS V14.01,2013-02-02 05:46:00,
2013-02-02 00:50:00,37.1,25.7,30.34,ENE,61,0.0,0.0,63,0.00,,---,0.00,VWS V14.01,2013-02-02 05:50:00,
2013-02-02 00:51:00,37.1,25.7,30.34,ENE,61,0.0,0.0,63,0.00,,---,0.00,VWS V14.01,2013-02-02 05:51:00,
2013-02-02 00:55:00,36.9,24.7,30.34,ENE,61,0.0,0.0,61,0.00,,---,0.00,VWS V14.01,2013-02-02 05:55:00,
2013-02-02 00:56:00,37.0,24.8,30.34,ENE,60,0.0,0.0,61,0.00,,---,0.00,VWS V14.01,2013-02-02 05:56:00,
2013-02-02 01:00:00,36.8,25.4,30.34,ENE,60,0.0,0.0,63,0.00,,---,0.00,VWS V14.01,2013-02-02 06:00:00,
2013-02-02 01:01:00,36.8,25.4,30.34,ENE,61,0.0,0.0,63,0.00,,---,0.00,VWS V14.01,2013-02-02 06:01:00,
2013-02-02 01:05:00,36.8,25.8,30.34,ENE,61,0.0,0.0,64,0.00,,---,0.00,VWS V14.01,2013-02-02 06:05:00,
2013-02-02 01:06:00,36.8,25.8,30.34,ENE,61,0.0,0.0,64,0.00,,---,0.00,VWS V14.01,2013-02-02 06:06:00,
2013-02-02 01:10:00,36.9,26.2,30.34,ENE,61,0.0,1.0,65,0.00,,---,0.00,VWS V14.01,2013-02-02 06:10:00,
2013-02-02 01:11:00,36.9,26.2,30.34,ENE,60,0.0,1.0,65,0.00,,---,0.00,VWS V14.01,2013-02-02 06:11:00,
2013-02-02 01:15:00,36.9,25.9,30.34,ENE,61,0.0,1.0,64,0.00,,---,0.00,VWS V14.01,2013-02-02 06:15:00,
2013-02-02 01:16:00,36.9,25.9,30.34,ENE,60,0.0,1.0,64,0.00,,---,0.00,VWS V14.01,2013-02-02 06:16:00,
2013-02-02 01:20:00,37.0,25.2,30.34,ENE,60,0.0,1.0,62,0.00,,---,0.00,VWS V14.01,2013-02-02 06:20:00,
2013-02-02 01:21:00,37.0,25.2,30.34,ENE,60,0.0,1.0,62,0.00,,---,0.00,VWS V14.01,2013-02-02 06:21:00,
2013-02-02 01:25:00,36.6,24.4,30.34,ENE,61,1.0,1.0,61,0.00,,---,0.00,VWS V14.01,2013-02-02 06:25:00,
2013-02-02 01:26:00,36.7,24.9,30.34,ENE,60,1.0,1.0,62,0.00,,---,0.00,VWS V14.01,2013-02-02 06:26:00,
2013-02-02 01:30:00,36.4,24.6,30.34,ENE,61,2.0,2.0,62,0.00,,---,0.00,VWS V14.01,2013-02-02 06:30:00,
2013-02-02 01:31:00,36.4,24.2,30.34,ENE,61,0.0,1.0,61,0.00,,---,0.00,VWS V14.01,2013-02-02 06:31:00,
2013-02-02 01:35:00,36.2,24.5,30.34,ENE,60,0.0,0.0,62,0.00,,---,0.00,VWS V14.01,2013-02-02 06:35:00,
2013-02-02 01:36:00,36.3,24.5,30.34,ENE,61,0.0,0.0,62,0.00,,---,0.00,VWS V14.01,2013-02-02 06:36:00,
2013-02-02 01:40:00,36.2,24.8,30.34,ENE,60,0.0,0.0,63,0.00,,---,0.00,VWS V14.01,2013-02-02 06:40:00,
2013-02-02 01:41:00,36.2,24.8,30.34,ENE,60,0.0,0.0,63,0.00,,---,0.00,VWS V14.01,2013-02-02 06:41:00,
2013-02-02 01:45:00,36.1,24.0,30.33,ENE,61,0.0,2.0,61,0.00,,---,0.00,VWS V14.01,2013-02-02 06:45:00,
2013-02-02 01:46:00,36.1,24.0,30.33,ENE,61,0.0,2.0,61,0.00,,---,0.00,VWS V14.01,2013-02-02 06:46:00,
2013-02-02 01:50:00,35.7,23.6,30.33,ENE,61,0.0,0.0,61,0.00,,---,0.00,VWS V14.01,2013-02-02 06:50:00,
2013-02-02 01:51:00,35.7,24.0,30.33,ENE,61,0.0,0.0,62,0.00,,---,0.00,VWS V14.01,2013-02-02 06:51:00,
2013-02-02 01:55:00,35.6,24.3,30.33,ENE,60,0.0,2.0,63,0.00,,---,0.00,VWS V14.01,2013-02-02 06:55:00,
2013-02-02 01:56:00,35.6,23.9,30.33,ENE,61,0.0,2.0,62,0.00,,---,0.00,VWS V14.01,2013-02-02 06:56:00,
2013-02-02 02:00:00,35.5,23.8,30.33,ENE,61,0.0,0.0,62,0.00,,---,0.00,VWS V14.01,2013-02-02 07:00:00,
2013-02-02 02:01:00,35.6,23.9,30.33,ENE,61,0.0,0.0,62,0.00,,---,0.00,VWS V14.01,2013-02-02 07:01:00,
2013-02-02 02:05:00,35.4,23.3,30.33,ENE,60,2.0,2.0,61,0.00,,---,0.00,VWS V14.01,2013-02-02 07:05:00,
2013-02-02 02:06:00,35.4,23.3,30.33,ENE,61,1.0,1.0,61,0.00,,---,0.00,VWS V14.01,2013-02-02 07:06:00,
2013-02-02 02:10:00,35.2,23.9,30.33,ENE,61,2.0,2.0,63,0.00,,---,0.00,VWS V14.01,2013-02-02 07:10:00,
2013-02-02 02:11:00,35.2,23.5,30.33,ENE,61,2.0,2.0,62,0.00,,---,0.00,VWS V14.01,2013-02-02 07:11:00,
2013-02-02 02:15:00,35.1,23.4,30.33,ENE,61,0.0,0.0,62,0.00,,---,0.00,VWS V14.01,2013-02-02 07:15:00,
2013-02-02 02:16:00,35.1,23.4,30.33,ENE,61,0.0,0.0,62,0.00,,---,0.00,VWS V14.01,2013-02-02 07:16:00,
2013-02-02 02:20:00,35.2,23.1,30.33,ENE,61,0.0,2.0,61,0.00,,---,0.00,VWS V14.01,2013-02-02 07:20:00,
2013-02-02 02:21:00,35.2,23.1,30.33,ENE,61,0.0,2.0,61,0.00,,---,0.00,VWS V14.01,2013-02-02 07:21:00,
2013-02-02 02:25:00,35.1,23.4,30.33,ENE,61,0.0,3.0,62,0.00,,---,0.00,VWS V14.01,2013-02-02 07:25:00,
2013-02-02 02:26:00,35.1,23.4,30.33,ENE,61,0.0,3.0,62,0.00,,---,0.00,VWS V14.01,2013-02-02 07:26:00,
2013-02-02 02:30:00,34.9,23.6,30.33,ENE,61,0.0,0.0,63,0.00,,---,0.00,VWS V14.01,2013-02-02 07:30:00,
2013-02-02 02:31:00,34.9,23.6,30.33,ENE,61,0.0,0.0,63,0.00,,---,0.00,VWS V14.01,2013-02-02 07:31:00,
2013-02-02 02:35:00,34.9,23.2,30.33,ENE,61,0.0,0.0,62,0.00,,---,0.00,VWS V14.01,2013-02-02 07:35:00,
2013-02-02 02:36:00,34.9,22.8,30.33,ENE,61,0.0,0.0,61,0.00,,---,0.00,VWS V14.01,2013-02-02 07:36:00,
2013-02-02 02:40:00,34.8,23.1,30.33,ENE,61,0.0,0.0,62,0.00,,---,0.00,VWS V14.01,2013-02-02 07:40:00,
2013-02-02 02:41:00,34.8,22.7,30.33,ENE,61,0.0,0.0,61,0.00,,---,0.00,VWS V14.01,2013-02-02 07:41:00,
2013-02-02 02:45:00,34.6,23.3,30.33,ENE,61,0.0,0.0,63,0.00,,---,0.00,VWS V14.01,2013-02-02 07:45:00,
2013-02-02 02:46:00,34.7,23.4,30.33,ENE,61,0.0,0.0,63,0.00,,---,0.00,VWS V14.01,2013-02-02 07:46:00,
2013-02-02 02:50:00,34.5,23.2,30.34,ENE,61,2.0,2.0,63,0.00,,---,0.00,VWS V14.01,2013-02-02 07:50:00,
2013-02-02 02:51:00,34.5,23.2,30.34,ENE,61,2.0,2.0,63,0.00,,---,0.00,VWS V14.01,2013-02-02 07:51:00,
2013-02-02 02:55:00,34.5,22.5,30.33,ENE,61,0.0,0.0,61,0.00,,---,0.00,VWS V14.01,2013-02-02 07:55:00,
2013-02-02 02:56:00,34.5,22.5,30.33,ENE,61,0.0,0.0,61,0.00,,---,0.00,VWS V14.01,2013-02-02 07:56:00,
2013-02-02 03:00:00,34.3,22.6,30.33,ENE,61,0.0,0.0,62,0.00,,---,0.00,VWS V14.01,2013-02-02 08:00:00,
2013-02-02 03:01:00,34.3,22.6,30.33,ENE,61,0.0,0.0,62,0.00,,---,0.00,VWS V14.01,2013-02-02 08:01:00,
2013-02-02 03:05:00,34.1,22.8,30.34,ENE,61,0.0,0.0,63,0.00,,---,0.00,VWS V14.01,2013-02-02 08:05:00,
2013-02-02 03:06:00,34.1,22.5,30.34,ENE,61,0.0,0.0,62,0.00,,---,0.00,VWS V14.01,2013-02-02 08:06:00,
2013-02-02 03:10:00,34.2,22.2,30.34,ENE,63,0.0,5.0,61,0.00,,---,0.00,VWS V14.01,2013-02-02 08:10:00,
2013-02-02 03:11:00,34.2,22.2,30.34,ENE,63,0.0,5.0,61,0.00,,---,0.00,VWS V14.01,2013-02-02 08:11:00,
2013-02-02 03:15:00,34.1,22.5,30.34,ENE,63,0.0,0.0,62,0.00,,---,0.00,VWS V14.01,2013-02-02 08:15:00,
2013-02-02 03:16:00,34.1,22.8,30.34,ENE,63,0.0,0.0,63,0.00,,---,0.00,VWS V14.01,2013-02-02 08:16:00,
2013-02-02 03:20:00,33.9,22.3,30.34,ENE,63,0.0,2.0,62,0.00,,---,0.00,VWS V14.01,2013-02-02 08:20:00,
2013-02-02 03:21:00,33.9,22.3,30.34,ENE,63,0.0,2.0,62,0.00,,---,0.00,VWS V14.01,2013-02-02 08:21:00,
2013-02-02 03:25:00,33.8,22.6,30.34,ENE,64,0.0,2.0,63,0.00,,---,0.00,VWS V14.01,2013-02-02 08:25:00,
2013-02-02 03:26:00,33.8,22.5,30.34,ENE,64,0.0,2.0,63,0.00,,---,0.00,VWS V14.01,2013-02-02 08:26:00,
2013-02-02 03:30:00,33.7,22.5,30.34,ENE,64,0.0,0.0,63,0.00,,---,0.00,VWS V14.01,2013-02-02 08:30:00,
2013-02-02 03:31:00,33.7,22.5,30.34,ENE,64,0.0,0.0,63,0.00,,---,0.00,VWS V14.01,2013-02-02 08:31:00,
2013-02-02 03:35:00,33.6,22.7,30.34,ENE,64,0.0,0.0,64,0.00,,---,0.00,VWS V14.01,2013-02-02 08:35:00,
2013-02-02 03:36:00,33.6,22.7,30.34,ENE,64,0.0,0.0,64,0.00,,---,0.00,VWS V14.01,2013-02-02 08:36:00,
2013-02-02 03:40:00,33.4,22.5,30.34,ENE,64,0.0,0.0,64,0.00,,---,0.00,VWS V14.01,2013-02-02 08:40:00,
2013-02-02 03:41:00,33.4,22.5,30.34,ENE,64,0.0,0.0,64,0.00,,---,0.00,VWS V14.01,2013-02-02 08:41:00,
2013-02-02 03:45:00,33.4,23.3,30.34,ENE,64,0.0,0.0,66,0.00,,---,0.00,VWS V14.01,2013-02-02 08:45:00,
2013-02-02 03:46:00,33.4,23.3,30.34,ENE,64,0.0,0.0,66,0.00,,---,0.00,VWS V14.01,2013-02-02 08:46:00,
2013-02-02 03:50:00,33.3,22.8,30.34,ENE,64,0.0,2.0,65,0.00,,---,0.00,VWS V14.01,2013-02-02 08:50:00,
2013-02-02 03:51:00,33.3,22.8,30.34,ENE,64,0.0,0.0,65,0.00,,---,0.00,VWS V14.01,2013-02-02 08:51:00,
2013-02-02 03:55:00,33.3,23.5,30.34,ENE,64,0.0,0.0,67,0.00,,---,0.00,VWS V14.01,2013-02-02 08:55:00,
2013-02-02 03:56:00,33.3,23.5,30.34,ENE,64,0.0,0.0,67,0.00,,---,0.00,VWS V14.01,2013-02-02 08:56:00,
2013-02-02 04:00:00,33.3,22.5,30.34,ENE,64,0.0,0.0,64,0.00,,---,0.00,VWS V14.01,2013-02-02 09:00:00,
2013-02-02 04:01:00,33.3,22.5,30.34,ENE,64,0.0,0.0,64,0.00,,---,0.00,VWS V14.01,2013-02-02 09:01:00,
2013-02-02 04:05:00,33.4,22.5,30.34,ENE,64,0.0,0.0,64,0.00,,---,0.00,VWS V14.01,2013-02-02 09:05:00,
2013-02-02 04:06:00,33.3,22.5,30.34,ENE,64,0.0,0.0,64,0.00,,---,0.00,VWS V14.01,2013-02-02 09:06:00,
2013-02-02 04:10:00,33.3,22.8,30.34,ENE,64,0.0,2.0,65,0.00,,---,0.00,VWS V14.01,2013-02-02 09:10:00,
2013-02-02 04:11:00,33.3,22.8,30.34,ENE,64,1.0,1.0,65,0.00,,---,0.00,VWS V14.01,2013-02-02 09:11:00,
2013-02-02 04:15:00,33.3,22.1,30.33,ENE,64,0.0,3.0,63,0.00,,---,0.00,VWS V14.01,2013-02-02 09:15:00,
2013-02-02 04:16:00,33.3,22.1,30.33,ENE,64,0.0,3.0,63,0.00,,---,0.00,VWS V14.01,2013-02-02 09:16:00,
2013-02-02 04:20:00,33.2,22.4,30.33,ENE,64,0.0,3.0,64,0.00,,---,0.00,VWS V14.01,2013-02-02 09:20:00,
2013-02-02 04:21:00,33.2,22.4,30.33,ENE,64,0.0,3.0,64,0.00,,---,0.00,VWS V14.01,2013-02-02 09:21:00,
2013-02-02 04:25:00,33.1,22.6,30.33,ENE,64,0.0,4.0,65,0.00,,---,0.00,VWS V14.01,2013-02-02 09:25:00,
2013-02-02 04:26:00,33.1,22.6,30.33,ENE,64,2.0,4.0,65,0.00,,---,0.00,VWS V14.01,2013-02-02 09:26:00,
2013-02-02 04:30:00,33.1,22.6,30.33,ENE,65,0.0,3.0,65,0.00,,---,0.00,VWS V14.01,2013-02-02 09:30:00,
2013-02-02 04:32:00,33.1,22.6,30.33,ENE,65,0.0,3.0,65,0.00,,---,0.00,VWS V14.01,2013-02-02 09:32:00,
2013-02-02 04:35:00,33.1,22.6,30.33,ENE,65,0.0,0.0,65,0.00,,---,0.00,VWS V14.01,2013-02-02 09:35:00,
2013-02-02 04:37:00,33.1,22.6,30.33,ENE,64,0.0,0.0,65,0.00,,---,0.00,VWS V14.01,2013-02-02 09:37:00,
2013-02-02 04:40:00,32.9,22.8,30.33,ENE,64,0.0,0.0,66,0.00,,---,0.00,VWS V14.01,2013-02-02 09:40:00,
2013-02-02 04:42:00,32.9,22.8,30.33,ENE,65,0.0,0.0,66,0.00,,---,0.00,VWS V14.01,2013-02-02 09:42:00,
2013-02-02 04:45:00,32.7,23.0,30.32,ENE,64,0.0,0.0,67,0.00,,---,0.00,VWS V14.01,2013-02-02 09:45:00,
2013-02-02 04:47:00,32.7,23.0,30.32,ENE,65,0.0,0.0,67,0.00,,---,0.00,VWS V14.01,2013-02-02 09:47:00,
2013-02-02 04:50:00,32.4,22.7,30.32,ENE,65,0.0,0.0,67,0.00,,---,0.00,VWS V14.01,2013-02-02 09:50:00,
2013-02-02 04:52:00,32.4,22.7,30.32,ENE,64,0.0,0.0,67,0.00,,---,0.00,VWS V14.01,2013-02-02 09:52:00,
2013-02-02 04:55:00,32.4,23.7,30.33,ENE,64,0.0,0.0,70,0.00,,---,0.00,VWS V14.01,2013-02-02 09:55:00,
2013-02-02 04:57:00,32.4,23.7,30.33,ENE,64,0.0,0.0,70,0.00,,---,0.00,VWS V14.01,2013-02-02 09:57:00,
2013-02-02 05:00:00,32.4,23.7,30.33,ENE,65,0.0,2.0,70,0.00,,---,0.00,VWS V14.01,2013-02-02 10:00:00,
2013-02-02 05:02:00,32.4,23.7,30.33,ENE,65,0.0,2.0,70,0.00,,---,0.00,VWS V14.01,2013-02-02 10:02:00,
2013-02-02 05:05:00,32.5,23.5,30.32,ENE,65,0.0,2.0,69,0.00,,---,0.00,VWS V14.01,2013-02-02 10:05:00,
2013-02-02 05:07:00,32.5,23.5,30.32,ENE,65,0.0,2.0,69,0.00,,---,0.00,VWS V14.01,2013-02-02 10:07:00,
2013-02-02 05:10:00,32.7,23.7,30.33,ENE,65,0.0,0.0,69,0.00,,---,0.00,VWS V14.01,2013-02-02 10:10:00,
2013-02-02 05:12:00,32.7,23.7,30.33,ENE,65,0.0,0.0,69,0.00,,---,0.00,VWS V14.01,2013-02-02 10:12:00,
2013-02-02 05:15:00,32.9,24.2,30.33,ENE,65,0.0,0.0,70,0.00,,---,0.00,VWS V14.01,2013-02-02 10:15:00,
2013-02-02 05:17:00,32.9,24.2,30.33,ENE,65,0.0,0.0,70,0.00,,---,0.00,VWS V14.01,2013-02-02 10:17:00,
2013-02-02 05:20:00,33.1,24.7,30.33,ENE,64,0.0,0.0,71,0.00,,---,0.00,VWS V14.01,2013-02-02 10:20:00,
2013-02-02 05:22:00,33.1,24.7,30.33,ENE,65,0.0,0.0,71,0.00,,---,0.00,VWS V14.01,2013-02-02 10:22:00,
2013-02-02 05:25:00,33.1,24.7,30.33,ENE,64,0.0,0.0,71,0.00,,---,0.00,VWS V14.01,2013-02-02 10:25:00,
2013-02-02 05:27:00,33.1,24.7,30.33,ENE,65,0.0,0.0,71,0.00,,---,0.00,VWS V14.01,2013-02-02 10:27:00,
2013-02-02 05:30:00,33.1,25.1,30.33,ENE,65,0.0,0.0,72,0.00,,---,0.00,VWS V14.01,2013-02-02 10:30:00,
2013-02-02 05:32:00,33.2,25.2,30.34,ENE,65,0.0,0.0,72,0.00,,---,0.00,VWS V14.01,2013-02-02 10:32:00,
2013-02-02 05:35:00,33.3,25.3,30.33,ENE,65,0.0,0.0,72,0.00,,---,0.00,VWS V14.01,2013-02-02 10:35:00,
2013-02-02 05:37:00,33.3,25.3,30.33,ENE,65,0.0,0.0,72,0.00,,---,0.00,VWS V14.01,2013-02-02 10:37:00,
2013-02-02 05:40:00,33.4,25.4,30.33,ENE,64,0.0,0.0,72,0.00,,---,0.00,VWS V14.01,2013-02-02 10:40:00,
2013-02-02 05:42:00,33.4,25.4,30.33,ENE,65,0.0,0.0,72,0.00,,---,0.00,VWS V14.01,2013-02-02 10:42:00,
2013-02-02 05:45:00,33.4,25.4,30.33,ENE,65,0.0,0.0,72,0.00,,---,0.00,VWS V14.01,2013-02-02 10:45:00,
2013-02-02 05:47:00,33.4,25.4,30.33,ENE,65,0.0,0.0,72,0.00,,---,0.00,VWS V14.01,2013-02-02 10:47:00,
2013-02-02 05:50:00,33.3,25.3,30.33,ENE,65,0.0,0.0,72,0.00,,---,0.00,VWS V14.01,2013-02-02 10:50:00,
2013-02-02 05:52:00,33.3,25.3,30.33,ENE,65,0.0,0.0,72,0.00,,---,0.00,VWS V14.01,2013-02-02 10:52:00,
2013-02-02 05:55:00,33.2,25.2,30.33,ENE,65,0.0,0.0,72,0.00,,---,0.00,VWS V14.01,2013-02-02 10:55:00,
2013-02-02 05:57:00,33.2,25.2,30.33,ENE,64,0.0,0.0,72,0.00,,---,0.00,VWS V14.01,2013-02-02 10:57:00,
2013-02-02 06:00:00,33.2,25.5,30.33,ENE,64,0.0,0.0,73,0.00,,---,0.00,VWS V14.01,2013-02-02 11:00:00,
2013-02-02 06:02:00,33.2,25.5,30.34,ENE,65,0.0,0.0,73,0.00,,---,0.00,VWS V14.01,2013-02-02 11:02:00,
2013-02-02 06:05:00,33.3,26.2,30.34,ENE,65,0.0,0.0,75,0.00,,---,0.00,VWS V14.01,2013-02-02 11:05:00,
2013-02-02 06:07:00,33.3,26.2,30.34,ENE,65,0.0,0.0,75,0.00,,---,0.00,VWS V14.01,2013-02-02 11:07:00,
2013-02-02 06:10:00,33.3,25.9,30.34,ENE,65,1.0,2.0,74,0.00,,---,0.00,VWS V14.01,2013-02-02 11:10:00,
2013-02-02 06:12:00,33.3,25.9,30.34,ENE,65,0.0,2.0,74,0.00,,---,0.00,VWS V14.01,2013-02-02 11:12:00,
2013-02-02 06:15:00,33.2,25.2,30.34,ENE,64,0.0,3.0,72,0.00,,---,0.00,VWS V14.01,2013-02-02 11:15:00,
2013-02-02 06:17:00,33.2,25.2,30.34,ENE,64,0.0,3.0,72,0.00,,---,0.00,VWS V14.01,2013-02-02 11:17:00,
2013-02-02 06:20:00,33.2,25.2,30.34,ENE,65,0.0,0.0,72,0.00,,---,0.00,VWS V14.01,2013-02-02 11:20:00,
2013-02-02 06:22:00,33.2,25.2,30.34,ENE,64,0.0,0.0,72,0.00,,---,0.00,VWS V14.01,2013-02-02 11:22:00,
2013-02-02 06:25:00,33.0,25.0,30.34,ENE,65,0.0,0.0,72,0.00,,---,0.00,VWS V14.01,2013-02-02 11:25:00,
2013-02-02 06:27:00,33.0,25.0,30.34,ENE,64,0.0,0.0,72,0.00,,---,0.00,VWS V14.01,2013-02-02 11:27:00,
2013-02-02 06:30:00,32.8,24.8,30.34,ENE,65,0.0,1.0,72,0.00,,---,0.00,VWS V14.01,2013-02-02 11:30:00,
2013-02-02 06:32:00,32.8,24.8,30.35,ENE,65,0.0,1.0,72,0.00,,---,0.00,VWS V14.01,2013-02-02 11:32:00,
2013-02-02 06:35:00,32.8,24.8,30.35,ENE,64,0.0,0.0,72,0.00,,---,0.00,VWS V14.01,2013-02-02 11:35:00,
2013-02-02 06:37:00,32.8,24.8,30.34,ENE,64,0.0,0.0,72,0.00,,---,0.00,VWS V14.01,2013-02-02 11:37:00,
2013-02-02 06:40:00,32.7,24.4,30.34,ENE,64,0.0,0.0,71,0.00,,---,0.00,VWS V14.01,2013-02-02 11:40:00,
2013-02-02 06:42:00,32.7,24.4,30.35,ENE,64,0.0,0.0,71,0.00,,---,0.00,VWS V14.01,2013-02-02 11:42:00,
2013-02-02 06:45:00,32.6,24.2,30.35,ENE,65,0.0,0.0,71,0.00,,---,0.00,VWS V14.01,2013-02-02 11:45:00,
2013-02-02 06:47:00,32.6,24.2,30.34,ENE,64,0.0,0.0,71,0.00,,---,0.00,VWS V14.01,2013-02-02 11:47:00,
2013-02-02 06:50:00,32.5,24.2,30.34,ENE,64,3.0,3.0,71,0.00,,---,0.00,VWS V14.01,2013-02-02 11:50:00,
2013-02-02 06:52:00,32.5,24.2,30.34,ENE,65,2.0,3.0,71,0.00,,---,0.00,VWS V14.01,2013-02-02 11:52:00,
2013-02-02 06:55:00,32.5,24.2,30.34,ENE,65,0.0,0.0,71,0.00,,---,0.00,VWS V14.01,2013-02-02 11:55:00,
2013-02-02 06:57:00,32.5,24.2,30.34,ENE,65,2.0,2.0,71,0.00,,---,0.00,VWS V14.01,2013-02-02 11:57:00,
2013-02-02 07:00:00,32.4,24.4,30.34,ENE,65,0.0,0.0,72,0.00,,---,0.00,VWS V14.01,2013-02-02 12:00:00,
2013-02-02 07:02:00,32.4,24.4,30.35,ENE,65,0.0,0.0,72,0.00,,---,0.00,VWS V14.01,2013-02-02 12:02:00,
2013-02-02 07:05:00,32.4,24.7,30.35,ENE,65,1.0,3.0,73,0.00,,---,0.00,VWS V14.01,2013-02-02 12:05:00,
2013-02-02 07:07:00,32.4,24.7,30.35,ENE,65,0.0,1.0,73,0.00,,---,0.00,VWS V14.01,2013-02-02 12:07:00,
2013-02-02 07:10:00,32.3,24.6,30.35,ENE,64,0.0,0.0,73,0.00,,---,0.00,VWS V14.01,2013-02-02 12:10:00,
2013-02-02 07:12:00,32.3,24.6,30.35,ENE,65,0.0,0.0,73,0.00,,---,0.00,VWS V14.01,2013-02-02 12:12:00,
2013-02-02 07:15:00,32.3,24.6,30.34,ENE,65,0.0,0.0,73,0.00,,---,0.00,VWS V14.01,2013-02-02 12:15:00,
2013-02-02 07:17:00,32.3,24.6,30.34,ENE,64,0.0,0.0,73,0.00,,---,0.00,VWS V14.01,2013-02-02 12:17:00,
2013-02-02 07:20:00,32.4,24.7,30.35,ENE,65,0.0,0.0,73,0.00,,---,0.00,VWS V14.01,2013-02-02 12:20:00,
2013-02-02 07:22:00,32.4,24.7,30.35,ENE,65,0.0,0.0,73,0.00,,---,0.00,VWS V14.01,2013-02-02 12:22:00,
2013-02-02 07:25:00,32.4,24.4,30.35,ENE,65,0.0,2.0,72,0.00,,---,0.00,VWS V14.01,2013-02-02 12:25:00,
2013-02-02 07:27:00,32.4,24.4,30.35,ENE,64,0.0,2.0,72,0.00,,---,0.00,VWS V14.01,2013-02-02 12:27:00,
2013-02-02 07:30:00,32.4,24.4,30.35,ENE,64,0.0,3.0,72,0.00,,---,0.00,VWS V14.01,2013-02-02 12:30:00,
2013-02-02 07:32:00,32.4,24.4,30.35,ENE,64,0.0,3.0,72,0.00,,---,0.00,VWS V14.01,2013-02-02 12:32:00,
2013-02-02 07:35:00,32.5,24.5,30.34,ENE,65,0.0,0.0,72,0.00,,---,0.00,VWS V14.01,2013-02-02 12:35:00,
2013-02-02 07:37:00,32.4,24.4,30.34,ENE,65,0.0,0.0,72,0.00,,---,0.00,VWS V14.01,2013-02-02 12:37:00,
2013-02-02 07:40:00,32.6,24.9,30.34,ENE,65,0.0,0.0,73,0.00,,---,0.00,VWS V14.01,2013-02-02 12:40:00,
2013-02-02 07:42:00,32.6,24.9,30.35,ENE,65,0.0,0.0,73,0.00,,---,0.00,VWS V14.01,2013-02-02 12:42:00,
2013-02-02 07:45:00,32.8,25.1,30.34,ENE,64,0.0,0.0,73,0.00,,---,0.00,VWS V14.01,2013-02-02 12:45:00,
2013-02-02 07:47:00,32.8,25.1,30.34,ENE,65,0.0,0.0,73,0.00,,---,0.00,VWS V14.01,2013-02-02 12:47:00,
2013-02-02 07:50:00,33.3,25.3,30.34,ENE,64,0.0,0.0,72,0.00,,---,0.00,VWS V14.01,2013-02-02 12:50:00,
2013-02-02 07:52:00,33.3,25.3,30.34,ENE,65,0.0,0.0,72,0.00,,---,0.00,VWS V14.01,2013-02-02 12:52:00,
2013-02-02 07:55:00,33.8,25.4,30.34,ENE,64,0.0,4.0,71,0.00,,---,0.00,VWS V14.01,2013-02-02 12:55:00,
2013-02-02 07:57:00,33.9,25.8,30.34,ENE,64,0.0,4.0,72,0.00,,---,0.00,VWS V14.01,2013-02-02 12:57:00,
2013-02-02 08:00:00,34.4,26.3,30.34,ENE,65,0.0,3.0,72,0.00,,---,0.00,VWS V14.01,2013-02-02 13:00:00,
2013-02-02 08:02:00,34.5,26.4,30.34,ENE,65,0.0,3.0,72,0.00,,---,0.00,VWS V14.01,2013-02-02 13:02:00,
2013-02-02 08:05:00,35.1,27.0,30.34,ENE,65,0.0,2.0,72,0.00,,---,0.00,VWS V14.01,2013-02-02 13:05:00,
2013-02-02 08:07:00,35.2,27.1,30.34,ENE,65,3.0,5.0,72,0.00,,---,0.00,VWS V14.01,2013-02-02 13:07:00,
2013-02-02 08:10:00,35.7,26.9,30.34,ENE,63,4.0,5.0,70,0.00,,---,0.00,VWS V14.01,2013-02-02 13:10:00,
2013-02-02 08:12:00,35.7,26.5,30.35,ENE,63,0.0,4.0,69,0.00,,---,0.00,VWS V14.01,2013-02-02 13:12:00,
2013-02-02 08:15:00,36.1,26.9,30.34,ENE,63,2.0,5.0,69,0.00,,---,0.00,VWS V14.01,2013-02-02 13:15:00,
2013-02-02 08:17:00,36.2,27.0,30.34,ENE,63,3.0,5.0,69,0.00,,---,0.00,VWS V14.01,2013-02-02 13:17:00,
2013-02-02 08:20:00,36.9,28.4,30.34,ENE,63,0.0,4.0,71,0.00,,---,0.00,VWS V14.01,2013-02-02 13:20:00,
2013-02-02 08:22:00,37.0,28.5,30.34,ENE,63,3.0,4.0,71,0.00,,---,0.00,VWS V14.01,2013-02-02 13:22:00,
2013-02-02 08:25:00,37.3,28.1,30.34,ENE,63,3.0,3.0,69,0.00,,---,0.00,VWS V14.01,2013-02-02 13:25:00,
2013-02-02 08:27:00,37.3,28.1,30.34,ENE,63,2.0,5.0,69,0.00,,---,0.00,VWS V14.01,2013-02-02 13:27:00,
2013-02-02 08:30:00,37.7,28.1,30.34,ENE,63,3.0,5.0,68,0.00,,---,0.00,VWS V14.01,2013-02-02 13:30:00,
2013-02-02 08:32:00,37.8,27.8,30.34,ENE,63,1.0,5.0,67,0.00,,---,0.00,VWS V14.01,2013-02-02 13:32:00,
2013-02-02 08:35:00,38.2,28.2,30.35,ENE,63,5.0,5.0,67,0.00,,---,0.00,VWS V14.01,2013-02-02 13:35:00,
2013-02-02 08:37:00,38.3,28.3,30.35,ENE,63,3.0,5.0,67,0.00,,---,0.00,VWS V14.01,2013-02-02 13:37:00,
2013-02-02 08:40:00,38.9,29.2,30.35,ENE,63,2.0,5.0,68,0.00,,---,0.00,VWS V14.01,2013-02-02 13:40:00,
2013-02-02 08:42:00,38.9,29.2,30.34,ENE,63,4.0,5.0,68,0.00,,---,0.00,VWS V14.01,2013-02-02 13:42:00,
2013-02-02 08:45:00,39.4,29.0,30.34,ENE,57,2.0,6.0,66,0.00,,---,0.00,VWS V14.01,2013-02-02 13:45:00,
2013-02-02 08:47:00,39.5,29.5,30.34,ENE,57,2.0,4.0,67,0.00,,---,0.00,VWS V14.01,2013-02-02 13:47:00,
2013-02-02 08:50:00,40.0,29.2,30.34,NE,53,4.0,5.0,65,0.00,,---,0.00,VWS V14.01,2013-02-02 13:50:00,
2013-02-02 08:52:00,40.0,29.2,30.34,NE,53,5.0,6.0,65,0.00,,---,0.00,VWS V14.01,2013-02-02 13:52:00,
2013-02-02 08:55:00,40.6,30.1,30.35,NE,56,6.0,7.0,66,0.00,,---,0.00,VWS V14.01,2013-02-02 13:55:00,
2013-02-02 08:57:00,40.7,30.2,30.34,NE,56,4.0,7.0,66,0.00,,---,0.00,VWS V14.01,2013-02-02 13:57:00,
2013-02-02 09:00:00,41.1,30.6,30.34,NE,55,3.0,6.0,66,0.00,,---,0.00,VWS V14.01,2013-02-02 14:00:00,
2013-02-02 09:02:00,41.1,30.6,30.34,NE,55,5.0,6.0,66,0.00,,---,0.00,VWS V14.01,2013-02-02 14:02:00,
2013-02-02 09:05:00,41.6,30.7,30.35,NE,56,3.0,6.0,65,0.00,,---,0.00,VWS V14.01,2013-02-02 14:05:00,
2013-02-02 09:07:00,41.8,31.3,30.34,NE,56,3.0,4.0,66,0.00,,---,0.00,VWS V14.01,2013-02-02 14:07:00,
2013-02-02 09:10:00,42.3,31.0,30.34,NE,56,2.0,6.0,64,0.00,,---,0.00,VWS V14.01,2013-02-02 14:10:00,
2013-02-02 09:12:00,42.4,31.1,30.34,NE,56,2.0,5.0,64,0.00,,---,0.00,VWS V14.01,2013-02-02 14:12:00,
2013-02-02 09:15:00,43.1,32.2,30.34,NE,56,5.0,5.0,65,0.00,,---,0.00,VWS V14.01,2013-02-02 14:15:00,
2013-02-02 09:17:00,43.1,31.8,30.35,NE,56,1.0,6.0,64,0.00,,---,0.00,VWS V14.01,2013-02-02 14:17:00,
2013-02-02 09:20:00,43.6,32.6,30.35,NE,55,5.0,7.0,65,0.00,,---,0.00,VWS V14.01,2013-02-02 14:20:00,
2013-02-02 09:23:00,43.7,32.7,30.35,NE,55,4.0,9.0,65,0.00,,---,0.00,VWS V14.01,2013-02-02 14:23:00,
2013-02-02 09:25:00,44.2,33.2,30.35,ENE,57,3.0,5.0,65,0.00,,---,0.00,VWS V14.01,2013-02-02 14:25:00,
2013-02-02 09:28:00,44.2,33.2,30.34,NE,56,5.0,5.0,65,0.00,,---,0.00,VWS V14.01,2013-02-02 14:28:00,
2013-02-02 09:30:00,44.5,33.1,30.35,ENE,57,4.0,5.0,64,0.00,,---,0.00,VWS V14.01,2013-02-02 14:30:00,
2013-02-02 09:33:00,44.5,33.1,30.34,ENE,57,2.0,5.0,64,0.00,,---,0.00,VWS V14.01,2013-02-02 14:33:00,
2013-02-02 09:35:00,45.0,34.0,30.34,ENE,64,4.0,6.0,65,0.00,,---,0.00,VWS V14.01,2013-02-02 14:35:00,
2013-02-02 09:38:00,45.1,33.7,30.34,ENE,74,6.0,6.0,64,0.00,,---,0.00,VWS V14.01,2013-02-02 14:38:00,
2013-02-02 09:40:00,45.4,34.3,30.34,ENE,74,3.0,5.0,65,0.00,,---,0.00,VWS V14.01,2013-02-02 14:40:00,
2013-02-02 09:43:00,45.4,34.0,30.34,ENE,71,5.0,6.0,64,0.00,,---,0.00,VWS V14.01,2013-02-02 14:43:00,
2013-02-02 09:45:00,45.9,34.8,30.34,ENE,74,5.0,6.0,65,0.00,,---,0.00,VWS V14.01,2013-02-02 14:45:00,
2013-02-02 09:48:00,46.0,34.9,30.34,ENE,71,4.0,7.0,65,0.00,,---,0.00,VWS V14.01,2013-02-02 14:48:00,
2013-02-02 09:50:00,46.2,35.1,30.34,ENE,69,5.0,7.0,65,0.00,,---,0.00,VWS V14.01,2013-02-02 14:50:00,
2013-02-02 09:53:00,46.3,35.2,30.34,ENE,70,3.0,7.0,65,0.00,,---,0.00,VWS V14.01,2013-02-02 14:53:00,
2013-02-02 09:55:00,46.4,35.3,30.34,ENE,65,9.0,9.0,65,0.00,,---,0.00,VWS V14.01,2013-02-02 14:55:00,
2013-02-02 09:58:00,46.4,35.3,30.34,ENE,70,6.0,11.0,65,0.00,,---,0.00,VWS V14.01,2013-02-02 14:58:00,
2013-02-02 10:00:00,46.7,36.0,30.34,ENE,75,3.0,5.0,66,0.00,,---,0.00,VWS V14.01,2013-02-02 15:00:00,
2013-02-02 10:03:00,46.8,35.7,30.34,ENE,76,2.0,5.0,65,0.00,,---,0.00,VWS V14.01,2013-02-02 15:03:00,
2013-02-02 10:05:00,47.1,35.6,30.33,East,92,6.0,9.0,64,0.00,,---,0.00,VWS V14.01,2013-02-02 15:05:00,
2013-02-02 10:08:00,47.1,35.6,30.34,East,88,5.0,9.0,64,0.00,,---,0.00,VWS V14.01,2013-02-02 15:08:00,
2013-02-02 10:10:00,47.2,36.0,30.34,ENE,63,4.0,9.0,65,0.00,,---,0.00,VWS V14.01,2013-02-02 15:10:00,
2013-02-02 10:13:00,47.3,35.8,30.34,ENE,63,3.0,9.0,64,0.00,,---,0.00,VWS V14.01,2013-02-02 15:13:00,
2013-02-02 10:15:00,47.6,36.4,30.33,NE,36,4.0,6.0,65,0.00,,---,0.00,VWS V14.01,2013-02-02 15:15:00,
2013-02-02 10:18:00,47.6,36.4,30.33,ENE,62,5.0,7.0,65,0.00,,---,0.00,VWS V14.01,2013-02-02 15:18:00,
2013-02-02 10:20:00,47.7,36.1,30.33,ENE,64,5.0,9.0,64,0.00,,---,0.00,VWS V14.01,2013-02-02 15:20:00,
2013-02-02 10:23:00,47.8,36.2,30.33,ENE,69,6.0,9.0,64,0.00,,---,0.00,VWS V14.01,2013-02-02 15:23:00,
2013-02-02 10:25:00,48.3,37.1,30.33,East,88,4.0,10.0,65,0.00,,---,0.00,VWS V14.01,2013-02-02 15:25:00,
2013-02-02 10:28:00,48.4,37.2,30.33,East,83,3.0,10.0,65,0.00,,---,0.00,VWS V14.01,2013-02-02 15:28:00,
2013-02-02 10:30:00,48.7,37.9,30.33,ESE,105,6.0,9.0,66,0.00,,---,0.00,VWS V14.01,2013-02-02 15:30:00,
2013-02-02 10:33:00,48.8,37.2,30.33,East,91,4.0,9.0,64,0.00,,---,0.00,VWS V14.01,2013-02-02 15:33:00,
2013-02-02 10:35:00,49.0,37.8,30.33,East,80,5.0,7.0,65,0.00,,---,0.00,VWS V14.01,2013-02-02 15:35:00,
2013-02-02 10:38:00,49.0,37.8,30.33,East,81,4.0,7.0,65,0.00,,---,0.00,VWS V14.01,2013-02-02 15:38:00,
2013-02-02 10:40:00,49.7,38.0,30.33,East,100,4.0,7.0,64,0.00,,---,0.00,VWS V14.01,2013-02-02 15:40:00,
2013-02-02 10:43:00,49.8,38.1,30.33,East,91,4.0,7.0,64,0.00,,---,0.00,VWS V14.01,2013-02-02 15:43:00,
2013-02-02 10:45:00,50.1,38.4,30.33,ENE,57,6.0,9.0,64,0.00,,---,0.00,VWS V14.01,2013-02-02 15:45:00,
2013-02-02 10:48:00,50.3,39.0,30.33,ENE,57,3.0,6.0,65,0.00,,---,0.00,VWS V14.01,2013-02-02 15:48:00,
2013-02-02 10:50:00,50.5,38.8,30.32,ENE,78,4.0,7.0,64,0.00,,---,0.00,VWS V14.01,2013-02-02 15:50:00,
2013-02-02 10:53:00,50.4,38.7,30.32,ENE,76,4.0,5.0,64,0.00,,---,0.00,VWS V14.01,2013-02-02 15:53:00,
2013-02-02 10:55:00,50.4,38.3,30.32,ENE,75,5.0,7.0,63,0.00,,---,0.00,VWS V14.01,2013-02-02 15:55:00,
2013-02-02 10:58:00,50.4,38.7,30.32,East,85,3.0,6.0,64,0.00,,---,0.00,VWS V14.01,2013-02-02 15:58:00,
2013-02-02 11:00:00,50.7,38.6,30.32,East,88,3.0,7.0,63,0.00,,---,0.00,VWS V14.01,2013-02-02 16:00:00,
2013-02-02 11:03:00,50.8,39.5,30.32,East,84,8.0,11.0,65,0.00,,---,0.00,VWS V14.01,2013-02-02 16:03:00,
2013-02-02 11:05:00,50.8,39.1,30.32,East,97,2.0,7.0,64,0.00,,---,0.00,VWS V14.01,2013-02-02 16:05:00,
2013-02-02 11:08:00,50.8,39.1,30.32,ENE,77,8.0,8.0,64,0.00,,---,0.00,VWS V14.01,2013-02-02 16:08:00,
2013-02-02 11:10:00,50.7,39.0,30.31,ENE,63,7.0,7.0,64,0.00,,---,0.00,VWS V14.01,2013-02-02 16:10:00,
2013-02-02 11:13:00,50.7,39.4,30.31,ENE,61,6.0,7.0,65,0.00,,---,0.00,VWS V14.01,2013-02-02 16:13:00,
2013-02-02 11:15:00,50.8,39.1,30.31,ENE,61,0.0,6.0,64,0.00,,---,0.00,VWS V14.01,2013-02-02 16:15:00,
2013-02-02 11:18:00,50.9,39.6,30.31,ENE,61,2.0,4.0,65,0.00,,---,0.00,VWS V14.01,2013-02-02 16:18:00,
2013-02-02 11:20:00,51.1,39.0,30.31,ENE,64,2.0,6.0,63,0.00,,---,0.00,VWS V14.01,2013-02-02 16:20:00,
2013-02-02 11:23:00,51.2,39.8,30.31,ENE,64,4.0,6.0,65,0.00,,---,0.00,VWS V14.01,2013-02-02 16:23:00,
2013-02-02 11:25:00,51.4,40.0,30.31,ENE,63,7.0,7.0,65,0.00,,---,0.00,VWS V14.01,2013-02-02 16:25:00,
2013-02-02 11:28:00,51.5,39.7,30.31,ENE,64,5.0,7.0,64,0.00,,---,0.00,VWS V14.01,2013-02-02 16:28:00,
2013-02-02 11:30:00,51.9,40.1,30.31,ENE,64,2.0,4.0,64,0.00,,---,0.00,VWS V14.01,2013-02-02 16:30:00,
2013-02-02 11:33:00,52.1,40.7,30.31,ENE,64,4.0,7.0,65,0.00,,---,0.00,VWS V14.01,2013-02-02 16:33:00,
2013-02-02 11:35:00,52.2,40.0,30.30,NE,56,3.0,5.0,63,0.00,,---,0.00,VWS V14.01,2013-02-02 16:35:00,
2013-02-02 11:38:00,52.3,40.5,30.30,ENE,57,6.0,7.0,64,0.00,,---,0.00,VWS V14.01,2013-02-02 16:38:00,
2013-02-02 11:40:00,52.0,39.8,30.30,ENE,58,0.0,3.0,63,0.00,,---,0.00,VWS V14.01,2013-02-02 16:40:00,
2013-02-02 11:43:00,52.1,40.3,30.30,ENE,57,1.0,3.0,64,0.00,,---,0.00,VWS V14.01,2013-02-02 16:43:00,
2013-02-02 11:45:00,52.3,40.1,30.30,ENE,59,5.0,5.0,63,0.00,,---,0.00,VWS V14.01,2013-02-02 16:45:00,
2013-02-02 11:48:00,52.3,40.1,30.29,ENE,59,5.0,5.0,63,0.00,,---,0.00,VWS V14.01,2013-02-02 16:48:00,
2013-02-02 11:50:00,52.2,40.4,30.29,ENE,57,9.0,9.0,64,0.00,,---,0.00,VWS V14.01,2013-02-02 16:50:00,
2013-02-02 11:53:00,52.2,40.4,30.29,ENE,59,4.0,9.0,64,0.00,,---,0.00,VWS V14.01,2013-02-02 16:53:00,
2013-02-02 11:55:00,52.4,40.6,30.29,ENE,61,3.0,5.0,64,0.00,,---,0.00,VWS V14.01,2013-02-02 16:55:00,
2013-02-02 11:58:00,52.6,40.8,30.28,ENE,72,6.0,6.0,64,0.00,,---,0.00,VWS V14.01,2013-02-02 16:58:00,
2013-02-02 12:00:00,53.1,40.8,30.28,East,99,7.0,7.0,63,0.00,,---,0.00,VWS V14.01,2013-02-02 17:00:00,
2013-02-02 12:03:00,53.1,40.8,30.28,ESE,103,7.0,7.0,63,0.00,,---,0.00,VWS V14.01,2013-02-02 17:03:00,
2013-02-02 12:05:00,52.9,40.7,30.28,ESE,103,5.0,9.0,63,0.00,,---,0.00,VWS V14.01,2013-02-02 17:05:00,
2013-02-02 12:08:00,52.8,41.0,30.27,ESE,103,3.0,6.0,64,0.00,,---,0.00,VWS V14.01,2013-02-02 17:08:00,
2013-02-02 12:10:00,52.9,41.1,30.27,ESE,104,4.0,9.0,64,0.00,,---,0.00,VWS V14.01,2013-02-02 17:10:00,
2013-02-02 12:13:00,53.0,41.2,30.27,East,100,3.0,9.0,64,0.00,,---,0.00,VWS V14.01,2013-02-02 17:13:00,
2013-02-02 12:15:00,52.9,41.1,30.27,ESE,115,9.0,9.0,64,0.00,,---,0.00,VWS V14.01,2013-02-02 17:15:00,
2013-02-02 12:18:00,52.8,41.0,30.27,ESE,115,4.0,9.0,64,0.00,,---,0.00,VWS V14.01,2013-02-02 17:18:00,
2013-02-02 12:20:00,52.9,41.1,30.27,ESE,114,1.0,4.0,64,0.00,,---,0.00,VWS V14.01,2013-02-02 17:20:00,
2013-02-02 12:23:00,52.9,41.1,30.27,ESE,117,3.0,9.0,64,0.00,,---,0.00,VWS V14.01,2013-02-02 17:23:00,
2013-02-02 12:25:00,53.0,41.6,30.27,ESE,118,4.0,7.0,65,0.00,,---,0.00,VWS V14.01,2013-02-02 17:25:00,
2013-02-02 12:28:00,53.1,41.3,30.27,ESE,117,3.0,7.0,64,0.00,,---,0.00,VWS V14.01,2013-02-02 17:28:00,
2013-02-02 12:30:00,53.0,41.2,30.26,ESE,110,5.0,8.0,64,0.00,,---,0.00,VWS V14.01,2013-02-02 17:30:00,
2013-02-02 12:33:00,53.1,41.3,30.26,ESE,110,4.0,5.0,64,0.00,,---,0.00,VWS V14.01,2013-02-02 17:33:00,
2013-02-02 12:35:00,53.4,41.9,30.26,ESE,107,4.0,6.0,65,0.00,,---,0.00,VWS V14.01,2013-02-02 17:35:00,
2013-02-02 12:39:00,53.6,41.7,30.26,ESE,106,3.0,6.0,64,0.00,,---,0.00,VWS V14.01,2013-02-02 17:39:00,
2013-02-02 12:40:00,53.7,41.8,30.26,ESE,105,3.0,5.0,64,0.00,,---,0.00,VWS V14.01,2013-02-02 17:40:00,
2013-02-02 12:44:00,53.9,42.0,30.26,ESE,106,4.0,5.0,64,0.00,,---,0.00,VWS V14.01,2013-02-02 17:44:00,
2013-02-02 12:45:00,54.2,41.9,30.25,ESE,106,0.0,0.0,63,0.00,,---,0.00,VWS V14.01,2013-02-02 17:45:00,
2013-02-02 12:49:00,54.4,42.1,30.26,ESE,106,0.0,0.0,63,0.00,,---,0.00,VWS V14.01,2013-02-02 17:49:00,
2013-02-02 12:50:00,54.6,41.9,30.25,ESE,111,0.0,0.0,62,0.00,,---,0.00,VWS V14.01,2013-02-02 17:50:00,
2013-02-02 12:54:00,54.7,42.0,30.25,ESE,112,0.0,0.0,62,0.00,,---,0.00,VWS V14.01,2013-02-02 17:54:00,
2013-02-02 12:55:00,54.6,41.4,30.25,ESE,111,0.0,4.0,61,0.00,,---,0.00,VWS V14.01,2013-02-02 17:55:00,
2013-02-02 12:59:00,54.6,41.9,30.25,ESE,112,0.0,0.0,62,0.00,,---,0.00,VWS V14.01,2013-02-02 17:59:00,
2013-02-02 13:00:00,55.0,42.7,30.25,ESE,113,0.0,0.0,63,0.00,,---,0.00,VWS V14.01,2013-02-02 18:00:00,
2013-02-02 13:04:00,55.3,42.5,30.25,ESE,113,6.0,6.0,62,0.00,,---,0.00,VWS V14.01,2013-02-02 18:04:00,
2013-02-02 13:05:00,55.5,41.4,30.24,ESE,113,0.0,3.0,59,0.00,,---,0.00,VWS V14.01,2013-02-02 18:05:00,
2013-02-02 13:09:00,55.7,42.0,30.24,SE,142,4.0,6.0,60,0.00,,---,0.00,VWS V14.01,2013-02-02 18:09:00,
2013-02-02 13:10:00,55.8,41.7,30.24,South,176,0.0,2.0,59,0.00,,---,0.00,VWS V14.01,2013-02-02 18:10:00,
2013-02-02 13:14:00,55.7,42.5,30.24,SE,132,3.0,3.0,61,0.00,,---,0.00,VWS V14.01,2013-02-02 18:14:00,
2013-02-02 13:15:00,55.7,41.6,30.23,WSW,253,3.0,7.0,59,0.00,,---,0.00,VWS V14.01,2013-02-02 18:15:00,
2013-02-02 13:19:00,55.6,42.0,30.23,SE,137,6.0,9.0,60,0.00,,---,0.00,VWS V14.01,2013-02-02 18:19:00,
2013-02-02 13:20:00,55.0,41.4,30.23,SE,145,4.0,5.0,60,0.00,,---,0.00,VWS V14.01,2013-02-02 18:20:00,
2013-02-02 13:24:00,54.8,41.6,30.22,SE,131,4.0,6.0,61,0.00,,---,0.00,VWS V14.01,2013-02-02 18:24:00,
2013-02-02 13:25:00,54.6,41.4,30.22,SE,128,4.0,7.0,61,0.00,,---,0.00,VWS V14.01,2013-02-02 18:25:00,
2013-02-02 13:29:00,54.5,42.2,30.22,East,95,8.0,10.0,63,0.00,,---,0.00,VWS V14.01,2013-02-02 18:29:00,
2013-02-02 13:30:00,54.4,41.7,30.22,SE,131,3.0,7.0,62,0.00,,---,0.00,VWS V14.01,2013-02-02 18:30:00,
2013-02-02 13:34:00,54.5,41.8,30.22,ESE,106,5.0,7.0,62,0.00,,---,0.00,VWS V14.01,2013-02-02 18:34:00,
2013-02-02 13:35:00,54.5,41.3,30.22,ESE,113,4.0,8.0,61,0.00,,---,0.00,VWS V14.01,2013-02-02 18:35:00,
2013-02-02 13:39:00,54.5,41.3,30.21,East,80,3.0,6.0,61,0.00,,---,0.00,VWS V14.01,2013-02-02 18:39:00,
2013-02-02 13:40:00,54.5,42.2,30.21,East,91,5.0,5.0,63,0.00,,---,0.00,VWS V14.01,2013-02-02 18:40:00,
2013-02-02 13:44:00,54.6,41.9,30.21,ESE,105,0.0,7.0,62,0.00,,---,0.00,VWS V14.01,2013-02-02 18:44:00,
2013-02-02 13:45:00,55.0,42.2,30.21,South,180,3.0,6.0,62,0.00,,---,0.00,VWS V14.01,2013-02-02 18:45:00,
2013-02-02 13:49:00,55.0,42.2,30.21,South,169,4.0,4.0,62,0.00,,---,0.00,VWS V14.01,2013-02-02 18:49:00,
2013-02-02 13:50:00,54.9,42.1,30.21,SE,130,3.0,7.0,62,0.00,,---,0.00,VWS V14.01,2013-02-02 18:50:00,
2013-02-02 13:54:00,55.0,43.1,30.21,SE,128,0.0,7.0,64,0.00,,---,0.00,VWS V14.01,2013-02-02 18:54:00,
2013-02-02 13:55:00,55.2,42.4,30.20,SE,129,2.0,7.0,62,0.00,,---,0.00,VWS V14.01,2013-02-02 18:55:00,
2013-02-02 13:59:00,55.1,43.2,30.20,ESE,105,2.0,9.0,64,0.00,,---,0.00,VWS V14.01,2013-02-02 18:59:00,
2013-02-02 14:00:00,55.1,42.8,30.20,ESE,118,5.0,6.0,63,0.00,,---,0.00,VWS V14.01,2013-02-02 19:00:00,
2013-02-02 14:04:00,55.0,42.7,30.20,ESE,117,3.0,6.0,63,0.00,,---,0.00,VWS V14.01,2013-02-02 19:04:00,
2013-02-02 14:05:00,55.1,42.8,30.20,SSE,149,2.0,7.0,63,0.00,,---,0.00,VWS V14.01,2013-02-02 19:05:00,
2013-02-02 14:09:00,55.3,42.9,30.20,SE,142,4.0,7.0,63,0.00,,---,0.00,VWS V14.01,2013-02-02 19:09:00,
2013-02-02 14:10:00,55.1,42.3,30.20,ESE,119,4.0,7.0,62,0.00,,---,0.00,VWS V14.01,2013-02-02 19:10:00,
2013-02-02 14:14:00,55.0,42.2,30.20,SE,124,0.0,3.0,62,0.00,,---,0.00,VWS V14.01,2013-02-02 19:14:00,
2013-02-02 14:15:00,55.1,43.2,30.20,SE,138,5.0,5.0,64,0.00,,---,0.00,VWS V14.01,2013-02-02 19:15:00,
2013-02-02 14:19:00,54.8,42.9,30.20,SE,138,6.0,6.0,64,0.00,,---,0.00,VWS V14.01,2013-02-02 19:19:00,
2013-02-02 14:20:00,54.8,42.9,30.20,SE,137,0.0,5.0,64,0.00,,---,0.00,VWS V14.01,2013-02-02 19:20:00,
2013-02-02 14:24:00,55.0,43.1,30.20,SE,137,0.0,5.0,64,0.00,,---,0.00,VWS V14.01,2013-02-02 19:24:00,
2013-02-02 14:25:00,55.1,43.6,30.20,SE,137,0.0,5.0,65,0.00,,---,0.00,VWS V14.01,2013-02-02 19:25:00,
2013-02-02 14:29:00,55.4,43.4,30.20,SE,137,0.0,1.0,64,0.00,,---,0.00,VWS V14.01,2013-02-02 19:29:00,
2013-02-02 14:30:00,55.8,44.2,30.20,SSE,161,6.0,6.0,65,0.00,,---,0.00,VWS V14.01,2013-02-02 19:30:00,
2013-02-02 14:34:00,55.3,43.8,30.19,SE,131,0.0,4.0,65,0.00,,---,0.00,VWS V14.01,2013-02-02 19:34:00,
2013-02-02 14:35:00,55.4,43.8,30.19,SE,130,0.0,2.0,65,0.00,,---,0.00,VWS V14.01,2013-02-02 19:35:00,
2013-02-02 14:39:00,55.8,43.8,30.19,SE,132,0.0,3.0,64,0.00,,---,0.00,VWS V14.01,2013-02-02 19:39:00,
2013-02-02 14:40:00,56.2,43.4,30.19,SE,132,1.0,1.0,62,0.00,,---,0.00,VWS V14.01,2013-02-02 19:40:00,
2013-02-02 14:44:00,56.5,44.1,30.19,SE,132,0.0,2.0,63,0.00,,---,0.00,VWS V14.01,2013-02-02 19:44:00,
2013-02-02 14:45:00,56.4,43.1,30.19,SW,221,5.0,6.0,61,0.00,,---,0.00,VWS V14.01,2013-02-02 19:45:00,
2013-02-02 14:49:00,56.1,42.8,30.19,SW,222,0.0,3.0,61,0.00,,---,0.00,VWS V14.01,2013-02-02 19:49:00,
2013-02-02 14:50:00,55.9,43.1,30.19,SW,219,3.0,3.0,62,0.00,,---,0.00,VWS V14.01,2013-02-02 19:50:00,
2013-02-02 14:54:00,55.7,42.0,30.19,West,265,3.0,10.0,60,0.00,,---,0.00,VWS V14.01,2013-02-02 19:54:00,
2013-02-02 14:55:00,55.8,41.3,30.19,West,265,3.0,3.0,58,0.00,,---,0.00,VWS V14.01,2013-02-02 19:55:00,
2013-02-02 14:59:00,56.0,42.3,30.19,West,265,2.0,2.0,60,0.00,,---,0.00,VWS V14.01,2013-02-02 19:59:00,
2013-02-02 15:00:00,56.1,43.7,30.19,West,265,1.0,2.0,63,0.00,,---,0.00,VWS V14.01,2013-02-02 20:00:00,
2013-02-02 15:04:00,56.3,43.5,30.18,West,264,1.0,3.0,62,0.00,,---,0.00,VWS V14.01,2013-02-02 20:04:00,
2013-02-02 15:05:00,56.6,42.0,30.18,West,265,2.0,6.0,58,0.00,,---,0.00,VWS V14.01,2013-02-02 20:05:00,
2013-02-02 15:09:00,56.7,41.7,30.18,West,267,3.0,4.0,57,0.00,,---,0.00,VWS V14.01,2013-02-02 20:09:00,
2013-02-02 15:10:00,56.6,40.2,30.18,West,266,4.0,5.0,54,0.00,,---,0.00,VWS V14.01,2013-02-02 20:10:00,
2013-02-02 15:14:00,56.6,41.1,30.18,West,265,2.0,3.0,56,0.00,,---,0.00,VWS V14.01,2013-02-02 20:14:00,
2013-02-02 15:15:00,56.6,42.5,30.18,SW,215,0.0,3.0,59,0.00,,---,0.00,VWS V14.01,2013-02-02 20:15:00,
2013-02-02 15:19:00,56.4,40.5,30.18,WSW,257,3.0,7.0,55,0.00,,---,0.00,VWS V14.01,2013-02-02 20:19:00,
2013-02-02 15:20:00,56.1,40.6,30.18,West,264,2.0,4.0,56,0.00,,---,0.00,VWS V14.01,2013-02-02 20:20:00,
2013-02-02 15:24:00,55.9,40.9,30.18,WSW,254,3.0,5.0,57,0.00,,---,0.00,VWS V14.01,2013-02-02 20:24:00,
2013-02-02 15:25:00,55.8,41.3,30.18,WSW,254,2.0,3.0,58,0.00,,---,0.00,VWS V14.01,2013-02-02 20:25:00,
2013-02-02 15:29:00,55.6,41.5,30.18,WNW,285,4.0,7.0,59,0.00,,---,0.00,VWS V14.01,2013-02-02 20:29:00,
2013-02-02 15:30:00,55.6,42.8,30.18,WNW,286,4.0,4.0,62,0.00,,---,0.00,VWS V14.01,2013-02-02 20:30:00,
2013-02-02 15:34:00,55.8,43.0,30.18,WNW,286,1.0,3.0,62,0.00,,---,0.00,VWS V14.01,2013-02-02 20:34:00,
2013-02-02 15:35:00,55.7,42.0,30.18,SW,234,0.0,7.0,60,0.00,,---,0.00,VWS V14.01,2013-02-02 20:35:00,
2013-02-02 15:39:00,55.8,43.4,30.18,WSW,248,3.0,3.0,63,0.00,,---,0.00,VWS V14.01,2013-02-02 20:39:00,
2013-02-02 15:40:00,55.9,42.7,30.18,WSW,255,1.0,4.0,61,0.00,,---,0.00,VWS V14.01,2013-02-02 20:40:00,
2013-02-02 15:45:00,56.0,43.2,30.18,WSW,255,1.0,2.0,62,0.00,,---,0.00,VWS V14.01,2013-02-02 20:45:00,
2013-02-02 15:50:00,55.9,43.1,30.18,SW,227,3.0,3.0,62,0.00,,---,0.00,VWS V14.01,2013-02-02 20:50:00,
2013-02-02 15:55:00,55.7,43.3,30.17,WSW,244,1.0,3.0,63,0.00,,---,0.00,VWS V14.01,2013-02-02 20:55:00,
2013-02-02 16:00:00,55.8,44.2,30.17,WSW,244,1.0,2.0,65,0.00,,---,0.00,VWS V14.01,2013-02-02 21:00:00,
2013-02-02 16:05:00,56.0,44.0,30.17,WSW,246,1.0,4.0,64,0.00,,---,0.00,VWS V14.01,2013-02-02 21:05:00,
2013-02-02 16:10:00,55.9,43.9,30.17,WSW,251,0.0,4.0,64,0.00,,---,0.00,VWS V14.01,2013-02-02 21:10:00,
2013-02-02 16:15:00,55.7,43.7,30.17,WSW,249,1.0,3.0,64,0.00,,---,0.00,VWS V14.01,2013-02-02 21:15:00,
2013-02-02 16:20:00,55.1,43.6,30.17,WSW,243,3.0,3.0,65,0.00,,---,0.00,VWS V14.01,2013-02-02 21:20:00,
2013-02-02 16:25:00,55.1,44.3,30.17,WSW,238,0.0,5.0,67,0.00,,---,0.00,VWS V14.01,2013-02-02 21:25:00,
2013-02-02 16:30:00,55.1,44.3,30.17,WSW,237,1.0,3.0,67,0.00,,---,0.00,VWS V14.01,2013-02-02 21:30:00,
2013-02-02 16:35:00,54.8,44.1,30.17,South,182,0.0,6.0,67,0.00,,---,0.00,VWS V14.01,2013-02-02 21:35:00,
2013-02-02 16:40:00,54.9,44.5,30.16,South,182,0.0,4.0,68,0.00,,---,0.00,VWS V14.01,2013-02-02 21:40:00,
2013-02-02 16:45:00,54.8,44.5,30.16,South,182,1.0,3.0,68,0.00,,---,0.00,VWS V14.01,2013-02-02 21:45:00,
2013-02-02 16:50:00,54.7,44.7,30.17,South,182,0.0,1.0,69,0.00,,---,0.00,VWS V14.01,2013-02-02 21:50:00,
2013-02-02 16:55:00,55.0,45.0,30.17,South,169,2.0,2.0,69,0.00,,---,0.00,VWS V14.01,2013-02-02 21:55:00,
2013-02-02 17:00:00,55.0,44.7,30.17,South,169,0.0,1.0,68,0.00,,---,0.00,VWS V14.01,2013-02-02 22:00:00,
2013-02-02 17:05:00,54.7,44.0,30.16,South,182,1.0,3.0,67,0.00,,---,0.00,VWS V14.01,2013-02-02 22:05:00,
2013-02-02 17:10:00,54.1,43.4,30.17,South,184,1.0,2.0,67,0.00,,---,0.00,VWS V14.01,2013-02-02 22:10:00,
2013-02-02 17:15:00,53.9,43.2,30.16,South,190,1.0,4.0,67,0.00,,---,0.00,VWS V14.01,2013-02-02 22:15:00,
2013-02-02 17:20:00,53.7,43.4,30.16,SW,217,1.0,1.0,68,0.00,,---,0.00,VWS V14.01,2013-02-02 22:20:00,
2013-02-02 17:25:00,53.7,43.4,30.16,SW,217,2.0,2.0,68,0.00,,---,0.00,VWS V14.01,2013-02-02 22:25:00,
2013-02-02 17:30:00,53.6,42.5,30.16,SW,217,0.0,3.0,66,0.00,,---,0.00,VWS V14.01,2013-02-02 22:30:00,
2013-02-02 17:35:00,53.1,42.1,30.16,SW,217,0.0,1.0,66,0.00,,---,0.00,VWS V14.01,2013-02-02 22:35:00,
2013-02-02 17:40:00,52.6,42.3,30.16,SW,217,0.0,1.0,68,0.00,,---,0.00,VWS V14.01,2013-02-02 22:40:00,
2013-02-02 17:45:00,51.9,42.1,30.16,SW,217,0.0,0.0,69,0.00,,---,0.00,VWS V14.01,2013-02-02 22:45:00,
2013-02-02 17:50:00,51.1,42.0,30.15,SW,217,0.0,0.0,71,0.00,,---,0.00,VWS V14.01,2013-02-02 22:50:00,
2013-02-02 17:55:00,50.5,41.8,30.16,SW,217,0.0,0.0,72,0.00,,---,0.00,VWS V14.01,2013-02-02 22:55:00,
2013-02-02 18:00:00,50.0,41.3,30.16,SW,217,0.0,0.0,72,0.00,,---,0.00,VWS V14.01,2013-02-02 23:00:00,
2013-02-02 18:05:00,49.5,41.2,30.15,SW,217,0.0,0.0,73,0.00,,---,0.00,VWS V14.01,2013-02-02 23:05:00,
2013-02-02 18:10:00,48.8,40.9,30.15,SW,217,0.0,0.0,74,0.00,,---,0.00,VWS V14.01,2013-02-02 23:10:00,
2013-02-02 18:15:00,48.2,41.0,30.15,SW,217,0.0,0.0,76,0.00,,---,0.00,VWS V14.01,2013-02-02 23:15:00,
2013-02-02 18:20:00,47.6,40.8,30.15,SW,217,0.0,0.0,77,0.00,,---,0.00,VWS V14.01,2013-02-02 23:20:00,
2013-02-02 18:21:00,47.7,40.8,30.15,SW,217,0.0,0.0,77,0.00,,---,0.00,VWS V14.01,2013-02-02 23:21:00,
2013-02-02 18:25:00,47.1,40.6,30.15,SW,217,0.0,0.0,78,0.00,,---,0.00,VWS V14.01,2013-02-02 23:25:00,
2013-02-02 18:26:00,47.2,40.7,30.15,SW,217,0.0,0.0,78,0.00,,---,0.00,VWS V14.01,2013-02-02 23:26:00,
2013-02-02 18:30:00,46.8,40.6,30.15,SW,217,0.0,0.0,79,0.00,,---,0.00,VWS V14.01,2013-02-02 23:30:00,
2013-02-02 18:31:00,46.9,40.7,30.15,SW,217,0.0,0.0,79,0.00,,---,0.00,VWS V14.01,2013-02-02 23:31:00,
2013-02-02 18:35:00,46.5,40.3,30.15,SW,217,0.0,0.0,79,0.00,,---,0.00,VWS V14.01,2013-02-02 23:35:00,
2013-02-02 18:36:00,46.5,40.3,30.15,SW,217,0.0,0.0,79,0.00,,---,0.00,VWS V14.01,2013-02-02 23:36:00,
2013-02-02 18:40:00,46.2,40.4,30.15,SW,217,0.0,0.0,80,0.00,,---,0.00,VWS V14.01,2013-02-02 23:40:00,
2013-02-02 18:41:00,46.3,40.5,30.15,SW,217,0.0,0.0,80,0.00,,---,0.00,VWS V14.01,2013-02-02 23:41:00,
2013-02-02 18:45:00,46.0,40.5,30.15,SW,217,0.0,0.0,81,0.00,,---,0.00,VWS V14.01,2013-02-02 23:45:00,
2013-02-02 18:46:00,46.0,40.2,30.15,SW,217,0.0,0.0,80,0.00,,---,0.00,VWS V14.01,2013-02-02 23:46:00,
2013-02-02 18:50:00,45.7,40.2,30.15,SW,217,0.0,0.0,81,0.00,,---,0.00,VWS V14.01,2013-02-02 23:50:00,
2013-02-02 18:51:00,45.8,40.3,30.15,SW,217,0.0,0.0,81,0.00,,---,0.00,VWS V14.01,2013-02-02 23:51:00,
2013-02-02 18:55:00,45.5,40.0,30.15,SW,217,0.0,0.0,81,0.00,,---,0.00,VWS V14.01,2013-02-02 23:55:00,
2013-02-02 18:56:00,45.5,40.0,30.15,SW,217,0.0,0.0,81,0.00,,---,0.00,VWS V14.01,2013-02-02 23:56:00,
2013-02-02 19:00:00,45.3,39.8,30.15,SW,217,0.0,0.0,81,0.00,,---,0.00,VWS V14.01,2013-02-03 00:00:00,
2013-02-02 19:01:00,45.4,39.9,30.15,SW,217,0.0,0.0,81,0.00,,---,0.00,VWS V14.01,2013-02-03 00:01:00,
2013-02-02 19:05:00,45.2,40.0,30.15,SW,217,0.0,0.0,82,0.00,,---,0.00,VWS V14.01,2013-02-03 00:05:00,
2013-02-02 19:06:00,45.2,40.0,30.15,SW,217,0.0,0.0,82,0.00,,---,0.00,VWS V14.01,2013-02-03 00:06:00,
2013-02-02 19:10:00,45.1,39.9,30.14,SW,217,0.0,0.0,82,0.00,,---,0.00,VWS V14.01,2013-02-03 00:10:00,
2013-02-02 19:11:00,45.1,39.9,30.14,SW,217,0.0,0.0,82,0.00,,---,0.00,VWS V14.01,2013-02-03 00:11:00,
2013-02-02 19:15:00,45.0,39.8,30.15,SW,217,0.0,0.0,82,0.00,,---,0.00,VWS V14.01,2013-02-03 00:15:00,
2013-02-02 19:16:00,45.0,39.8,30.15,SW,217,0.0,0.0,82,0.00,,---,0.00,VWS V14.01,2013-02-03 00:16:00,
2013-02-02 19:20:00,44.9,39.8,30.14,SW,217,0.0,0.0,82,0.00,,---,0.00,VWS V14.01,2013-02-03 00:20:00,
2013-02-02 19:21:00,45.0,39.8,30.14,SW,217,0.0,0.0,82,0.00,,---,0.00,VWS V14.01,2013-02-03 00:21:00,
2013-02-02 19:25:00,44.9,39.8,30.14,SW,217,0.0,0.0,82,0.00,,---,0.00,VWS V14.01,2013-02-03 00:25:00,
2013-02-02 19:26:00,44.9,39.8,30.14,SW,217,0.0,0.0,82,0.00,,---,0.00,VWS V14.01,2013-02-03 00:26:00,
2013-02-02 19:30:00,44.9,39.8,30.14,SW,217,0.0,0.0,82,0.00,,---,0.00,VWS V14.01,2013-02-03 00:30:00,
2013-02-02 19:31:00,44.9,39.8,30.14,SW,217,0.0,0.0,82,0.00,,---,0.00,VWS V14.01,2013-02-03 00:31:00,
2013-02-02 19:35:00,44.9,39.8,30.14,SW,217,0.0,0.0,82,0.00,,---,0.00,VWS V14.01,2013-02-03 00:35:00,
2013-02-02 19:36:00,44.9,39.8,30.14,SW,217,0.0,0.0,82,0.00,,---,0.00,VWS V14.01,2013-02-03 00:36:00,
2013-02-02 19:40:00,44.9,39.8,30.14,SW,217,0.0,0.0,82,0.00,,---,0.00,VWS V14.01,2013-02-03 00:40:00,
2013-02-02 19:41:00,44.9,39.8,30.14,SW,217,0.0,0.0,82,0.00,,---,0.00,VWS V14.01,2013-02-03 00:41:00,
2013-02-02 19:45:00,44.9,39.8,30.13,SW,217,0.0,0.0,82,0.00,,---,0.00,VWS V14.01,2013-02-03 00:45:00,
2013-02-02 19:46:00,44.9,39.8,30.13,SW,217,0.0,0.0,82,0.00,,---,0.00,VWS V14.01,2013-02-03 00:46:00,
2013-02-02 19:50:00,44.9,39.8,30.13,SW,217,0.0,0.0,82,0.00,,---,0.00,VWS V14.01,2013-02-03 00:50:00,
2013-02-02 19:51:00,44.9,39.8,30.13,SW,217,0.0,0.0,82,0.00,,---,0.00,VWS V14.01,2013-02-03 00:51:00,
2013-02-02 19:55:00,44.9,39.8,30.13,SW,217,0.0,0.0,82,0.00,,---,0.00,VWS V14.01,2013-02-03 00:55:00,
2013-02-02 19:56:00,44.9,39.8,30.13,SW,217,0.0,0.0,82,0.00,,---,0.00,VWS V14.01,2013-02-03 00:56:00,
2013-02-02 20:00:00,44.9,39.8,30.13,SW,217,0.0,0.0,82,0.00,,---,0.00,VWS V14.01,2013-02-03 01:00:00,
2013-02-02 20:01:00,44.9,39.8,30.13,SW,217,0.0,0.0,82,0.00,,---,0.00,VWS V14.01,2013-02-03 01:01:00,
2013-02-02 20:05:00,44.9,40.1,30.12,SW,217,0.0,0.0,83,0.00,,---,0.00,VWS V14.01,2013-02-03 01:05:00,
2013-02-02 20:06:00,44.9,40.1,30.12,SW,217,0.0,0.0,83,0.00,,---,0.00,VWS V14.01,2013-02-03 01:06:00,
2013-02-02 20:10:00,44.9,39.8,30.12,SW,217,0.0,0.0,82,0.00,,---,0.00,VWS V14.01,2013-02-03 01:10:00,
2013-02-02 20:11:00,44.9,39.8,30.12,SW,217,0.0,0.0,82,0.00,,---,0.00,VWS V14.01,2013-02-03 01:11:00,
2013-02-02 20:15:00,44.7,39.9,30.12,SW,217,0.0,0.0,83,0.00,,---,0.00,VWS V14.01,2013-02-03 01:15:00,
2013-02-02 20:16:00,44.7,39.9,30.12,SW,217,0.0,0.0,83,0.00,,---,0.00,VWS V14.01,2013-02-03 01:16:00,
2013-02-02 20:20:00,44.5,39.7,30.12,SW,217,0.0,0.0,83,0.00,,---,0.00,VWS V14.01,2013-02-03 01:20:00,
2013-02-02 20:21:00,44.5,39.7,30.12,SW,217,0.0,0.0,83,0.00,,---,0.00,VWS V14.01,2013-02-03 01:21:00,
2013-02-02 20:25:00,44.3,39.5,30.12,SW,217,0.0,0.0,83,0.00,,---,0.00,VWS V14.01,2013-02-03 01:25:00,
2013-02-02 20:26:00,44.3,39.5,30.12,SW,217,0.0,0.0,83,0.00,,---,0.00,VWS V14.01,2013-02-03 01:26:00,
2013-02-02 20:30:00,44.1,39.6,30.13,SW,217,0.0,0.0,84,0.00,,---,0.00,VWS V14.01,2013-02-03 01:30:00,
2013-02-02 20:31:00,44.2,39.7,30.13,SW,217,0.0,0.0,84,0.00,,---,0.00,VWS V14.01,2013-02-03 01:31:00,
2013-02-02 20:35:00,44.1,39.6,30.13,SW,217,0.0,0.0,84,0.00,,---,0.00,VWS V14.01,2013-02-03 01:35:00,
2013-02-02 20:36:00,44.1,39.6,30.13,SW,217,0.0,0.0,84,0.00,,---,0.00,VWS V14.01,2013-02-03 01:36:00,
2013-02-02 20:40:00,44.1,39.6,30.13,SW,217,0.0,0.0,84,0.00,,---,0.00,VWS V14.01,2013-02-03 01:40:00,
2013-02-02 20:41:00,44.1,39.6,30.13,SW,217,0.0,0.0,84,0.00,,---,0.00,VWS V14.01,2013-02-03 01:41:00,
2013-02-02 20:45:00,44.4,39.9,30.13,SW,217,0.0,0.0,84,0.00,,---,0.00,VWS V14.01,2013-02-03 01:45:00,
2013-02-02 20:46:00,44.4,40.2,30.13,SW,217,0.0,0.0,85,0.00,,---,0.00,VWS V14.01,2013-02-03 01:46:00,
2013-02-02 20:50:00,44.6,40.1,30.13,SW,217,0.0,0.0,84,0.00,,---,0.00,VWS V14.01,2013-02-03 01:50:00,
2013-02-02 20:51:00,44.6,40.1,30.13,SW,217,0.0,0.0,84,0.00,,---,0.00,VWS V14.01,2013-02-03 01:51:00,
2013-02-02 20:55:00,44.6,40.1,30.13,SW,217,0.0,0.0,84,0.00,,---,0.00,VWS V14.01,2013-02-03 01:55:00,
2013-02-02 20:56:00,44.6,40.1,30.13,SW,217,0.0,0.0,84,0.00,,---,0.00,VWS V14.01,2013-02-03 01:56:00,
2013-02-02 21:00:00,44.6,40.4,30.13,SW,217,0.0,0.0,85,0.00,,---,0.00,VWS V14.01,2013-02-03 02:00:00,
2013-02-02 21:01:00,44.6,40.4,30.13,SW,217,0.0,0.0,85,0.00,,---,0.00,VWS V14.01,2013-02-03 02:01:00,
2013-02-02 21:05:00,44.8,40.6,30.13,SW,217,0.0,0.0,85,0.00,,---,0.00,VWS V14.01,2013-02-03 02:05:00,
2013-02-02 21:06:00,44.8,40.6,30.13,SW,217,0.0,0.0,85,0.00,,---,0.00,VWS V14.01,2013-02-03 02:06:00,
2013-02-02 21:10:00,44.9,40.4,30.13,SW,217,0.0,0.0,84,0.00,,---,0.00,VWS V14.01,2013-02-03 02:10:00,
2013-02-02 21:11:00,44.9,40.4,30.13,SW,217,0.0,0.0,84,0.00,,---,0.00,VWS V14.01,2013-02-03 02:11:00,
2013-02-02 21:15:00,45.0,40.5,30.13,SW,217,0.0,0.0,84,0.00,,---,0.00,VWS V14.01,2013-02-03 02:15:00,
2013-02-02 21:16:00,45.0,40.5,30.13,SW,217,0.0,0.0,84,0.00,,---,0.00,VWS V14.01,2013-02-03 02:16:00,
2013-02-02 21:20:00,45.1,40.6,30.13,SW,217,0.0,0.0,84,0.00,,---,0.00,VWS V14.01,2013-02-03 02:20:00,
2013-02-02 21:21:00,45.1,40.6,30.13,SW,217,0.0,0.0,84,0.00,,---,0.00,VWS V14.01,2013-02-03 02:21:00,
2013-02-02 21:25:00,44.9,40.4,30.13,SW,217,0.0,0.0,84,0.00,,---,0.00,VWS V14.01,2013-02-03 02:25:00,
2013-02-02 21:26:00,44.9,40.4,30.13,SW,217,0.0,0.0,84,0.00,,---,0.00,VWS V14.01,2013-02-03 02:26:00,
2013-02-02 21:30:00,44.7,40.2,30.13,SW,217,0.0,0.0,84,0.00,,---,0.00,VWS V14.01,2013-02-03 02:30:00,
2013-02-02 21:31:00,44.7,40.2,30.13,SW,217,0.0,0.0,84,0.00,,---,0.00,VWS V14.01,2013-02-03 02:31:00,
2013-02-02 21:35:00,44.6,40.4,30.13,SW,217,0.0,0.0,85,0.00,,---,0.00,VWS V14.01,2013-02-03 02:35:00,
2013-02-02 21:36:00,44.6,40.4,30.13,SW,217,0.0,0.0,85,0.00,,---,0.00,VWS V14.01,2013-02-03 02:36:00,
2013-02-02 21:40:00,44.5,40.3,30.13,SW,217,0.0,0.0,85,0.00,,---,0.00,VWS V14.01,2013-02-03 02:40:00,
2013-02-02 21:42:00,44.5,40.3,30.13,SW,217,0.0,0.0,85,0.00,,---,0.00,VWS V14.01,2013-02-03 02:42:00,
2013-02-02 21:45:00,44.3,40.1,30.12,SW,217,0.0,0.0,85,0.00,,---,0.00,VWS V14.01,2013-02-03 02:45:00,
2013-02-02 21:47:00,44.3,40.1,30.12,SW,217,0.0,0.0,85,0.00,,---,0.00,VWS V14.01,2013-02-03 02:47:00,
2013-02-02 21:50:00,44.3,40.4,30.12,SW,217,0.0,0.0,86,0.00,,---,0.00,VWS V14.01,2013-02-03 02:50:00,
2013-02-02 21:52:00,44.3,40.4,30.12,SW,217,0.0,0.0,86,0.00,,---,0.00,VWS V14.01,2013-02-03 02:52:00,
2013-02-02 21:55:00,44.3,40.4,30.12,SW,217,0.0,0.0,86,0.00,,---,0.00,VWS V14.01,2013-02-03 02:55:00,
2013-02-02 21:57:00,44.3,40.4,30.12,SW,217,0.0,0.0,86,0.00,,---,0.00,VWS V14.01,2013-02-03 02:57:00,
2013-02-02 22:00:00,44.4,40.8,30.12,SW,217,0.0,0.0,87,0.00,,---,0.00,VWS V14.01,2013-02-03 03:00:00,
2013-02-02 22:02:00,44.4,40.8,30.12,SW,217,0.0,0.0,87,0.00,,---,0.00,VWS V14.01,2013-02-03 03:02:00,
2013-02-02 22:05:00,44.4,40.5,30.12,SW,217,0.0,0.0,86,0.00,,---,0.00,VWS V14.01,2013-02-03 03:05:00,
2013-02-02 22:07:00,44.4,40.5,30.12,SW,217,0.0,0.0,86,0.00,,---,0.00,VWS V14.01,2013-02-03 03:07:00,
2013-02-02 22:10:00,44.3,40.7,30.12,SW,217,0.0,0.0,87,0.00,,---,0.00,VWS V14.01,2013-02-03 03:10:00,
2013-02-02 22:12:00,44.3,40.7,30.12,SW,217,0.0,0.0,87,0.00,,---,0.00,VWS V14.01,2013-02-03 03:12:00,
2013-02-02 22:15:00,44.3,40.7,30.12,SW,217,0.0,0.0,87,0.00,,---,0.00,VWS V14.01,2013-02-03 03:15:00,
2013-02-02 22:17:00,44.3,40.7,30.12,SW,217,0.0,0.0,87,0.00,,---,0.00,VWS V14.01,2013-02-03 03:17:00,
2013-02-02 22:20:00,44.2,40.6,30.12,SW,217,0.0,0.0,87,0.00,,---,0.00,VWS V14.01,2013-02-03 03:20:00,
2013-02-02 22:22:00,44.2,40.6,30.12,SW,217,0.0,0.0,87,0.00,,---,0.00,VWS V14.01,2013-02-03 03:22:00,
2013-02-02 22:25:00,44.1,40.5,30.11,SW,217,0.0,0.0,87,0.00,,---,0.00,VWS V14.01,2013-02-03 03:25:00,
2013-02-02 22:27:00,44.1,40.5,30.11,SW,217,0.0,0.0,87,0.00,,---,0.00,VWS V14.01,2013-02-03 03:27:00,
2013-02-02 22:30:00,44.1,40.8,30.12,SW,217,0.0,0.0,88,0.00,,---,0.00,VWS V14.01,2013-02-03 03:30:00,
2013-02-02 22:32:00,44.1,40.8,30.12,SW,217,0.0,0.0,88,0.00,,---,0.00,VWS V14.01,2013-02-03 03:32:00,
2013-02-02 22:35:00,44.2,41.2,30.12,SW,217,0.0,0.0,89,0.00,,---,0.00,VWS V14.01,2013-02-03 03:35:00,
2013-02-02 22:37:00,44.2,41.2,30.12,SW,217,0.0,0.0,89,0.00,,---,0.00,VWS V14.01,2013-02-03 03:37:00,
2013-02-02 22:40:00,44.7,42.0,30.11,SW,217,0.0,0.0,90,0.00,,---,0.00,VWS V14.01,2013-02-03 03:40:00,
2013-02-02 22:42:00,44.7,42.0,30.11,SW,217,0.0,0.0,90,0.00,,---,0.00,VWS V14.01,2013-02-03 03:42:00,
2013-02-02 22:45:00,45.2,42.5,30.11,SW,217,0.0,0.0,90,0.00,,---,0.00,VWS V14.01,2013-02-03 03:45:00,
2013-02-02 22:47:00,45.2,42.5,30.11,SW,217,0.0,0.0,90,0.00,,---,0.00,VWS V14.01,2013-02-03 03:47:00,
2013-02-02 22:50:00,45.5,42.7,30.11,SW,217,0.0,0.0,90,0.00,,---,0.00,VWS V14.01,2013-02-03 03:50:00,
2013-02-02 22:52:00,45.5,42.7,30.11,SW,217,0.0,0.0,90,0.00,,---,0.00,VWS V14.01,2013-02-03 03:52:00,
2013-02-02 22:55:00,45.6,42.5,30.11,SW,217,0.0,0.0,89,0.00,,---,0.00,VWS V14.01,2013-02-03 03:55:00,
2013-02-02 22:57:00,45.6,42.5,30.11,SW,217,0.0,0.0,89,0.00,,---,0.00,VWS V14.01,2013-02-03 03:57:00,
2013-02-02 23:00:00,45.9,43.1,30.11,SW,217,0.0,0.0,90,0.00,,---,0.00,VWS V14.01,2013-02-03 04:00:00,
2013-02-02 23:02:00,45.9,43.1,30.11,SW,217,0.0,0.0,90,0.00,,---,0.00,VWS V14.01,2013-02-03 04:02:00,
2013-02-02 23:05:00,46.1,43.3,30.12,SW,217,0.0,0.0,90,0.00,,---,0.00,VWS V14.01,2013-02-03 04:05:00,
2013-02-02 23:07:00,46.2,43.4,30.12,SW,217,0.0,0.0,90,0.00,,---,0.00,VWS V14.01,2013-02-03 04:07:00,
2013-02-02 23:10:00,46.5,43.4,30.11,SW,217,0.0,0.0,89,0.00,,---,0.00,VWS V14.01,2013-02-03 04:10:00,
2013-02-02 23:12:00,46.5,43.4,30.11,SW,217,0.0,0.0,89,0.00,,---,0.00,VWS V14.01,2013-02-03 04:12:00,
2013-02-02 23:15:00,46.8,43.7,30.12,SW,217,0.0,0.0,89,0.00,,---,0.00,VWS V14.01,2013-02-03 04:15:00,
2013-02-02 23:17:00,46.8,43.7,30.12,SW,217,0.0,0.0,89,0.00,,---,0.00,VWS V14.01,2013-02-03 04:17:00,
2013-02-02 23:20:00,46.9,43.5,30.11,SW,217,0.0,0.0,88,0.00,,---,0.00,VWS V14.01,2013-02-03 04:20:00,
2013-02-02 23:22:00,46.8,43.4,30.11,SW,217,0.0,0.0,88,0.00,,---,0.00,VWS V14.01,2013-02-03 04:22:00,
2013-02-02 23:25:00,46.9,43.5,30.11,SW,217,0.0,0.0,88,0.00,,---,0.00,VWS V14.01,2013-02-03 04:25:00,
2013-02-02 23:27:00,46.9,43.5,30.11,SW,217,0.0,0.0,88,0.00,,---,0.00,VWS V14.01,2013-02-03 04:27:00,
2013-02-02 23:30:00,46.9,43.5,30.11,SW,217,0.0,0.0,88,0.00,,---,0.00,VWS V14.01,2013-02-03 04:30:00,
2013-02-02 23:32:00,46.9,43.5,30.11,SW,217,0.0,0.0,88,0.00,,---,0.00,VWS V14.01,2013-02-03 04:32:00,
2013-02-02 23:35:00,47.0,43.6,30.11,SW,217,0.0,0.0,88,0.00,,---,0.00,VWS V14.01,2013-02-03 04:35:00,
2013-02-02 23:37:00,47.0,43.6,30.11,SW,217,0.0,0.0,88,0.00,,---,0.00,VWS V14.01,2013-02-03 04:37:00,
2013-02-02 23:40:00,47.3,43.3,30.10,SW,217,0.0,0.0,86,0.00,,---,0.00,VWS V14.01,2013-02-03 04:40:00,
2013-02-02 23:42:00,47.3,43.3,30.10,SW,217,0.0,0.0,86,0.00,,---,0.00,VWS V14.01,2013-02-03 04:42:00,
2013-02-02 23:45:00,47.2,43.2,30.10,SW,217,0.0,0.0,86,0.00,,---,0.00,VWS V14.01,2013-02-03 04:45:00,
2013-02-02 23:47:00,47.2,43.2,30.10,SW,217,0.0,0.0,86,0.00,,---,0.00,VWS V14.01,2013-02-03 04:47:00,
2013-02-02 23:50:00,47.1,43.1,30.10,SW,217,0.0,0.0,86,0.00,,---,0.00,VWS V14.01,2013-02-03 04:50:00,
2013-02-02 23:52:00,47.1,43.1,30.09,SW,217,0.0,0.0,86,0.00,,---,0.00,VWS V14.01,2013-02-03 04:52:00,
2013-02-02 23:55:00,47.0,43.0,30.09,SW,217,0.0,0.0,86,0.00,,---,0.00,VWS V14.01,2013-02-03 04:55:00,
2013-02-02 23:57:00,46.9,42.9,30.10,SW,217,0.0,0.0,86,0.00,,---,0.00,VWS V14.01,2013-02-03 04:57:00,